Location: ???????
(55.7027°N, 37.3832°E)
Time: 21:54:52
(UTC+00:00)

Cosmos 1908 Rocket - Pass Details

Date: 14 April 2026
Orbit: 599 x 625 km, 82.5° (Epoch: 11 May)

Event Time Altitude Azimuth Distance (km) Brightness Sun altitude
Exits shadow 18:51:57 33° 140° (SE) 1,025 4.1 -16.8°
Maximum altitude 18:53:18 45° 94° (E) 840 3.9 -16.9°
Drops below altitude 10° 18:57:26 10° 22° (NNE) 1,965 6.5 -17.3°
Sets 18:59:43 0° 16° (NNE) 2,870 7.5 -17.5°
